Weather in Antsiferovo

Russia / Krasnoyarsk Krai     58°52′23″N   91°51′33″E
temp.,
°C
wind,
m/s
gust,
m/s
humid.,
%
clouds,
%
prec.,
mm/h
press.,
hPa
HPBL,
m
6 march, sat
sat601:00−5sw41193100 1.1 1010928
04:00−8ssw31292100 0.1 1010669
07:00−6ssw3996100 0.4 1011567
10:00−4sw51087100 0.3 1011913
13:00−3ssw4886100 0.4 1010989
16:00−3s5993100 0.4 1008869
19:00−4ssw51194100 1.6 10061053
22:00−5ssw41193100 0.4 10041044
7 march, sun
sun701:00−5sw41195100 0.9 1003964
04:00−5sw51386100 0.3 10021046
07:00−5sw3129391 0.4 10021084
10:00−5wsw6128694 0.1 10031062
13:00−5wsw6128097 0.2 10061151
16:00−6wsw61182100 0.1 10091306
19:00−9wsw31288100 0.2 1012817
22:00−10wsw3129089 0.0 1014705
8 march, mon
mon801:00−10wsw3109492 0.1 1016540
04:00−12wsw399478 0.0 1019251
07:00−14sw239776 0.1 102155
10:00−12sse239576 0.0 1021173
13:00−8sse488785 0.0 1019662
16:00−6se61186100 0.0 1013595
19:00−6sse71489100 0.1 1008777
22:00−3sse61395100 1.3 1003902
9 march, tue
tue901:00−1sw61491100 3.3 10011297
04:00−7w51281100 0.2 1006992
07:00−10sw31192100 0.2 1010931
10:00−9wsw61285100 0.1 10121180
13:00−7w61180100 0.1 10161301
16:00−7wsw5981100 0.1 10181306
19:00−11sw269097 0.3 101992
22:00−13s269597 0.0 1019141
10 march, wed
wed1001:00−11s399399 0.0 1016401
04:00−11sse3992100 0.0 1013314
07:00−12sse3109497 0.0 1011316
10:00−7sw41088100 0.1 1009834
13:00−4wsw5986100 0.2 10101063
16:00−5w4783100 0.1 1012897
19:00−10sw1292100 0.1 101321
22:00−11sse1294100 0.0 101321